EW4767 Weather Reports


time (UTC)temp
F
wind
direction
speed
knots
gust
knots
rain 1hr
in
rain 24hr
in
rain mn
in
humidity
%
barometer
mb
20260504081510 41 290 0.0 0.0 0.00 0.00 0.00 86 1009.0
20260504050019 42 294 0.0 0.0 0.00 0.00 0.00 82 1009.6
20260504044514 42 294 0.0 0.0 0.00 0.00 0.00 83 1009.7
20260504043012 42 294 0.0 0.0 0.00 0.00 0.00 80 1009.8
20260504041518 41 277 0.0 0.0 0.00 0.00 0.00 81 1010.1
20260504040022 41 277 0.0 0.0 0.00 0.00 0.00 81 1010.1
20260504034520 40 277 0.0 0.0 0.00 0.00 0.00 82 1010.1
20260504033019 39 277 0.0 0.0 0.00 0.00 0.00 83 1009.9
20260504031516 37 277 0.0 0.0 0.00 0.00 0.00 82 1009.9
20260504030012 38 277 0.0 0.0 0.00 0.00 0.00 78 1009.7
20260504024507 39 277 0.0 1.7 0.00 0.00 0.00 75 1009.7
20260504023023 40 263 0.0 2.6 0.00 0.00 0.00 71 1009.7
20260504021524 40 296 0.0 1.7 0.00 0.00 0.00 68 1009.7
20260504020021 42 275 0.0 0.0 0.00 0.00 0.00 61 1009.7
20260504014516 45 304 0.0 3.5 0.00 0.00 0.00 56 1009.8
20260504013014 43 5 0.0 1.7 0.00 0.00 0.00 61 1009.9
20260504011511 44 302 0.0 1.7 0.00 0.00 0.00 55 1009.8
20260504010024 45 300 0.0 1.7 0.00 0.00 0.00 51 1009.6
20260504004526 48 312 0.9 3.5 0.00 0.00 0.00 44 1009.3
20260504003022 50 275 3.5 7.8 0.00 0.00 0.00 42 1009.2
20260504001520 50 288 1.7 5.2 0.00 0.00 0.00 41 1009.0
20260504000016 50 327 0.9 2.6 0.00 0.00 0.00 40 1008.9
20260503234514 52 298 4.3 9.6 0.00 0.00 0.00 37 1008.6
20260503233023 52 318 4.3 7.8 0.00 0.00 0.00 36 1008.4
20260503231526 53 314 3.5 11.3 0.00 0.00 0.00 34 1008.2
20260503230026 53 290 7.0 14.8 0.00 0.00 0.00 33 1008.0
20260503224523 54 277 5.2 10.4 0.00 0.00 0.00 32 1007.9
20260503223019 55 305 7.0 16.5 0.00 0.00 0.00 30 1007.8
20260503221516 56 301 6.1 13.0 0.00 0.00 0.00 28 1007.5
20260503220017 55 349 2.6 15.6 0.00 0.00 0.00 28 1007.4
20260503214527 56 306 3.5 11.3 0.00 0.00 0.00 28 1007.4
20260503213029 55 360 5.2 12.2 0.00 0.00 0.00 29 1007.5
20260503211533 56 325 6.1 13.0 0.00 0.00 0.00 29 1007.5
20260503210022 56 271 7.0 14.8 0.00 0.00 0.00 29 1007.4
20260503204521 55 232 4.3 13.0 0.00 0.00 0.00 31 1007.6
20260503203018 54 316 4.3 13.0 0.00 0.00 0.00 33 1007.9
20260503201516 53 275 4.3 9.6 0.00 0.00 0.00 34 1008.0
20260503200012 52 326 3.5 9.6 0.00 0.00 0.00 36 1008.2
20260503194509 52 36 5.2 13.0 0.00 0.00 0.00 36 1008.5
20260503193008 53 322 7.0 13.9 0.00 0.00 0.00 39 1008.8
20260503191507 52 295 4.3 13.9 0.00 0.00 0.00 39 1008.8
20260503190039 51 321 5.2 15.6 0.00 0.00 0.00 38 1009.2
20260503184520 51 307 4.3 10.4 0.00 0.00 0.00 39 1009.2
20260503183017 52 28 5.2 11.3 0.00 0.00 0.00 39 1009.4
20260503181516 51 279 4.3 13.0 0.00 0.00 0.00 41 1009.3
20260503180015 50 5 2.6 12.2 0.00 0.00 0.00 41 1009.5
20260503174508 50 65 4.3 10.4 0.00 0.00 0.00 40 1009.6
20260503173007 49 310 5.2 10.4 0.00 0.00 0.00 41 1009.7
20260503171533 48 315 3.5 13.0 0.00 0.00 0.00 42 1009.9